Time,TemperatureF,DewpointF,PressureIn,WindDirection,WindDirectionDegrees,WindSpeedMPH,WindSpeedGustMPH,Humidity,HourlyPrecipIn,Conditions,Clouds,dailyrainin,SolarRadiationWatts/m^2,SoftwareType,DateUTC
2013-05-07 00:01:00,51.1,48.0,29.99,SSE,154,6.0,9.0,89,0.00,RA,,0.00,0.0,WeatherDisplay:10.37,2013-05-06 23:01:00,
2013-05-07 00:11:00,51.1,48.0,29.99,SSE,152,7.0,10.0,89,0.00,CLR,,0.00,0.0,WeatherDisplay:10.37,2013-05-06 23:11:00,
2013-05-07 00:21:00,51.1,47.7,29.99,SSE,151,6.0,8.0,88,0.00,CLR,,0.00,0.0,WeatherDisplay:10.37,2013-05-06 23:21:00,
2013-05-07 00:26:00,51.1,47.7,29.99,SSE,151,6.0,8.0,88,0.00,CLR,,0.00,0.0,WeatherDisplay:10.37,2013-05-06 23:26:00,
2013-05-07 00:31:00,51.1,47.7,29.99,SSE,151,5.0,8.0,88,0.00,CLR,,0.00,0.0,WeatherDisplay:10.37,2013-05-06 23:31:00,
2013-05-07 00:36:00,51.0,47.6,29.99,SSE,151,5.0,8.0,88,0.00,CLR,,0.00,0.0,WeatherDisplay:10.37,2013-05-06 23:36:00,
2013-05-07 00:46:00,50.9,47.5,29.99,SSE,152,5.0,9.0,88,0.00,CLR,,0.00,0.0,WeatherDisplay:10.37,2013-05-06 23:46:00,
2013-05-07 00:51:00,50.9,47.5,29.99,SSE,152,3.0,6.0,88,0.00,CLR,,0.00,0.0,WeatherDisplay:10.37,2013-05-06 23:51:00,
2013-05-07 00:56:00,50.8,47.4,29.99,SSE,152,3.0,7.0,88,0.00,CLR,,0.00,0.0,WeatherDisplay:10.37,2013-05-06 23:56:00,
2013-05-07 01:01:00,50.8,47.4,29.99,SSE,152,3.0,6.0,88,0.00,CLR,,0.00,0.0,WeatherDisplay:10.37,2013-05-07 00:01:00,
2013-05-07 01:11:00,50.6,47.2,29.99,SSE,152,5.0,7.0,88,0.00,CLR,,0.00,0.0,WeatherDisplay:10.37,2013-05-07 00:11:00,
2013-05-07 01:21:00,50.4,46.9,29.99,SSE,152,2.0,5.0,88,0.00,CLR,,0.00,0.0,WeatherDisplay:10.37,2013-05-07 00:21:00,
2013-05-07 01:31:00,49.9,46.5,29.98,SSE,151,2.0,5.0,88,0.00,CLR,,0.00,0.0,WeatherDisplay:10.37,2013-05-07 00:31:00,
2013-05-07 01:41:00,49.5,46.1,29.98,SSE,151,2.0,4.0,88,0.00,CLR,,0.00,0.0,WeatherDisplay:10.37,2013-05-07 00:41:00,
2013-05-07 01:46:00,49.2,46.1,29.98,SSE,151,3.0,6.0,89,0.00,CLR,,0.00,0.0,WeatherDisplay:10.37,2013-05-07 00:46:00,
2013-05-07 01:51:00,49.1,46.0,29.98,SSE,151,1.0,4.0,89,0.00,CLR,,0.00,0.0,WeatherDisplay:10.37,2013-05-07 00:51:00,
2013-05-07 01:56:00,48.9,45.8,29.98,SSE,151,1.0,2.0,89,0.00,CLR,,0.00,0.0,WeatherDisplay:10.37,2013-05-07 00:56:00,
2013-05-07 02:01:00,48.7,45.6,29.98,SSE,151,0.0,2.0,89,0.00,CLR,,0.00,0.0,WeatherDisplay:10.37,2013-05-07 01:01:00,
2013-05-07 02:11:00,48.7,46.2,29.97,SSE,151,3.0,6.0,91,0.00,CLR,,0.00,0.0,WeatherDisplay:10.37,2013-05-07 01:11:00,
2013-05-07 02:16:00,48.7,46.2,29.97,SSE,151,3.0,8.0,91,0.00,CLR,,0.00,0.0,WeatherDisplay:10.37,2013-05-07 01:16:00,
2013-05-07 02:21:00,49.0,46.8,29.97,SSE,151,5.0,8.0,92,0.00,CLR,,0.00,0.0,WeatherDisplay:10.37,2013-05-07 01:21:00,
2013-05-07 02:31:00,49.6,47.4,29.97,SSE,151,5.0,9.0,92,0.00,CLR,,0.00,0.0,WeatherDisplay:10.37,2013-05-07 01:31:00,
2013-05-07 02:46:00,50.1,47.6,29.96,SE,143,5.0,10.0,91,0.00,CLR,,0.00,0.0,WeatherDisplay:10.37,2013-05-07 01:46:00,
2013-05-07 02:51:00,50.2,47.7,29.96,SE,145,5.0,9.0,91,0.00,CLR,,0.00,0.0,WeatherDisplay:10.37,2013-05-07 01:51:00,
2013-05-07 03:01:00,50.2,47.7,29.96,SE,145,3.0,8.0,91,0.00,CLR,,0.00,0.0,WeatherDisplay:10.37,2013-05-07 02:01:00,
2013-05-07 03:11:00,50.1,47.3,29.96,SE,145,3.0,6.0,90,0.00,CLR,,0.00,0.0,WeatherDisplay:10.37,2013-05-07 02:11:00,
2013-05-07 03:16:00,50.0,47.2,29.96,SE,145,2.0,6.0,90,0.00,CLR,,0.00,0.0,WeatherDisplay:10.37,2013-05-07 02:16:00,
2013-05-07 03:21:00,50.0,47.4,29.96,SE,145,1.0,5.0,91,0.00,CLR,,0.00,0.0,WeatherDisplay:10.37,2013-05-07 02:21:00,
2013-05-07 03:26:00,49.8,47.3,29.96,SE,145,1.0,4.0,91,0.00,CLR,,0.00,0.0,WeatherDisplay:10.37,2013-05-07 02:26:00,
2013-05-07 03:31:00,49.8,47.2,29.95,SE,145,1.0,4.0,91,0.00,CLR,,0.00,0.0,WeatherDisplay:10.37,2013-05-07 02:31:00,
2013-05-07 03:41:00,49.4,46.6,29.95,SE,145,1.0,2.0,90,0.00,CLR,,0.00,0.0,WeatherDisplay:10.37,2013-05-07 02:41:00,
2013-05-07 03:46:00,49.3,46.8,29.95,SE,145,0.0,1.0,91,0.00,CLR,,0.00,0.0,WeatherDisplay:10.37,2013-05-07 02:46:00,
2013-05-07 03:51:00,49.1,46.6,29.95,SE,145,0.0,1.0,91,0.00,CLR,,0.00,0.0,WeatherDisplay:10.37,2013-05-07 02:51:00,
2013-05-07 04:01:00,48.7,45.9,29.95,SE,145,0.0,0.0,90,0.00,CLR,,0.00,0.0,WeatherDisplay:10.37,2013-05-07 03:01:00,
2013-05-07 04:11:00,48.3,45.8,29.95,SE,145,0.0,0.0,91,0.00,CLR,,0.00,0.0,WeatherDisplay:10.37,2013-05-07 03:11:00,
2013-05-07 04:16:00,48.0,45.5,29.95,SE,145,0.0,0.0,91,0.00,CLR,,0.00,0.0,WeatherDisplay:10.37,2013-05-07 03:16:00,
2013-05-07 04:21:00,47.7,44.9,29.95,SE,145,1.0,2.0,90,0.00,CLR,,0.00,0.0,WeatherDisplay:10.37,2013-05-07 03:21:00,
2013-05-07 04:31:00,47.4,44.9,29.95,SE,145,0.0,1.0,91,0.00,CLR,,0.00,0.0,WeatherDisplay:10.37,2013-05-07 03:31:00,
2013-05-07 04:41:00,47.3,45.1,29.95,SE,145,1.0,5.0,92,0.00,CLR,,0.00,0.0,WeatherDisplay:10.37,2013-05-07 03:41:00,
2013-05-07 04:46:00,47.4,45.5,29.95,SE,145,0.0,4.0,93,0.00,CLR,,0.00,0.0,WeatherDisplay:10.37,2013-05-07 03:46:00,
2013-05-07 04:51:00,47.5,45.6,29.95,SE,145,1.0,2.0,93,0.00,CLR,,0.00,0.0,WeatherDisplay:10.37,2013-05-07 03:51:00,
2013-05-07 04:56:00,47.5,45.6,29.95,SE,145,0.0,1.0,93,0.00,CLR,,0.00,0.0,WeatherDisplay:10.37,2013-05-07 03:56:00,
2013-05-07 05:01:00,47.5,45.6,29.95,SE,145,0.0,1.0,93,0.00,CLR,,0.00,0.0,WeatherDisplay:10.37,2013-05-07 04:01:00,
2013-05-07 05:06:00,47.5,45.6,29.95,SE,145,0.0,0.0,93,0.00,CLR,,0.00,0.0,WeatherDisplay:10.37,2013-05-07 04:06:00,
2013-05-07 05:11:00,47.5,45.6,29.95,SE,145,0.0,0.0,93,0.00,CLR,,0.00,0.0,WeatherDisplay:10.37,2013-05-07 04:11:00,
2013-05-07 05:16:00,47.4,45.5,29.94,SE,145,0.0,0.0,93,0.00,CLR,,0.00,0.0,WeatherDisplay:10.37,2013-05-07 04:16:00,
2013-05-07 05:21:00,47.3,45.4,29.94,SE,145,0.0,2.0,93,0.00,OVC,,0.00,0.0,WeatherDisplay:10.37,2013-05-07 04:21:00,
2013-05-07 05:31:00,47.2,45.3,29.94,SE,145,1.0,2.0,93,0.00,OVC,,0.00,0.0,WeatherDisplay:10.37,2013-05-07 04:31:00,
2013-05-07 05:36:00,47.2,45.3,29.94,SE,145,0.0,1.0,93,0.00,OVC,,0.00,0.0,WeatherDisplay:10.37,2013-05-07 04:36:00,
2013-05-07 05:41:00,47.1,45.2,29.94,SE,145,0.0,0.0,93,0.00,OVC,,0.00,0.0,WeatherDisplay:10.37,2013-05-07 04:41:00,
2013-05-07 05:46:00,47.0,44.8,29.94,SE,145,0.0,0.0,92,0.00,OVC,,0.00,0.0,WeatherDisplay:10.37,2013-05-07 04:46:00,
2013-05-07 05:51:00,46.9,45.0,29.94,SE,145,0.0,4.0,93,0.00,OVC,,0.00,0.0,WeatherDisplay:10.37,2013-05-07 04:51:00,
2013-05-07 05:56:00,46.9,45.0,29.94,SE,145,2.0,4.0,93,0.00,OVC,,0.00,0.0,WeatherDisplay:10.37,2013-05-07 04:56:00,
2013-05-07 06:01:00,46.9,45.0,29.94,SE,145,0.0,2.0,93,0.00,OVC,,0.00,0.0,WeatherDisplay:10.37,2013-05-07 05:01:00,
2013-05-07 06:11:00,47.1,45.4,29.94,SE,145,1.0,2.0,94,0.00,OVC,,0.00,0.0,WeatherDisplay:10.37,2013-05-07 05:11:00,
2013-05-07 06:16:00,47.1,45.5,29.94,SE,145,0.0,1.0,94,0.00,OVC,,0.00,0.0,WeatherDisplay:10.37,2013-05-07 05:16:00,
2013-05-07 06:21:00,47.2,45.6,29.94,SE,145,2.0,5.0,94,0.00,BKN,,0.00,5.0,WeatherDisplay:10.37,2013-05-07 05:21:00,
2013-05-07 06:31:00,47.3,45.7,29.94,SE,145,0.0,2.0,94,0.00,BKN,,0.00,7.0,WeatherDisplay:10.37,2013-05-07 05:31:00,
2013-05-07 06:41:00,47.4,45.8,29.94,SE,145,0.0,0.0,94,0.00,BKN,,0.00,18.0,WeatherDisplay:10.37,2013-05-07 05:41:00,
2013-05-07 06:46:00,47.4,45.8,29.94,SE,145,0.0,0.0,94,0.00,BKN,,0.00,19.0,WeatherDisplay:10.37,2013-05-07 05:46:00,
2013-05-07 06:51:00,47.5,45.9,29.94,SE,145,0.0,0.0,94,0.00,BKN,,0.00,21.0,WeatherDisplay:10.37,2013-05-07 05:51:00,
2013-05-07 07:01:00,47.6,46.0,29.94,SE,145,0.0,1.0,94,0.00,BKN,,0.00,21.0,WeatherDisplay:10.37,2013-05-07 06:01:00,
2013-05-07 07:11:00,47.7,46.1,29.94,SE,145,0.0,2.0,94,0.00,BKN,,0.00,28.0,WeatherDisplay:10.37,2013-05-07 06:11:00,
2013-05-07 07:16:00,47.8,46.2,29.93,SE,145,0.0,1.0,94,0.00,BKN,,0.00,28.0,WeatherDisplay:10.37,2013-05-07 06:16:00,
2013-05-07 07:21:00,47.9,46.3,29.94,SE,145,0.0,2.0,94,0.00,BKN,,0.00,37.0,WeatherDisplay:10.37,2013-05-07 06:21:00,
2013-05-07 07:31:00,48.2,46.6,29.94,SE,145,1.0,2.0,94,0.00,BKN,,0.00,44.0,WeatherDisplay:10.37,2013-05-07 06:31:00,
2013-05-07 07:41:00,48.6,47.2,29.94,SE,145,0.0,0.0,95,0.00,BKN,,0.00,69.0,WeatherDisplay:10.37,2013-05-07 06:41:00,
2013-05-07 07:46:00,48.9,47.6,29.94,SE,145,0.0,0.0,95,0.00,BKN,,0.00,86.0,WeatherDisplay:10.37,2013-05-07 06:46:00,
2013-05-07 07:51:00,49.3,47.9,29.94,SE,145,0.0,2.0,95,0.00,BKN,,0.00,120.0,WeatherDisplay:10.37,2013-05-07 06:51:00,
2013-05-07 08:01:00,49.9,48.5,29.93,SE,145,1.0,4.0,95,0.00,SCT,,0.00,95.0,WeatherDisplay:10.37,2013-05-07 07:01:00,
2013-05-07 08:11:00,50.4,48.7,29.93,SE,145,0.0,4.0,94,0.00,BKN,,0.00,100.0,WeatherDisplay:10.37,2013-05-07 07:11:00,
2013-05-07 08:16:00,50.6,48.9,29.93,SE,145,0.0,2.0,94,0.00,BKN,,0.00,86.0,WeatherDisplay:10.37,2013-05-07 07:16:00,
2013-05-07 08:21:00,50.7,49.1,29.93,SE,145,0.0,0.0,94,0.00,BKN,,0.00,72.0,WeatherDisplay:10.37,2013-05-07 07:21:00,
2013-05-07 08:31:00,51.0,49.3,29.93,SE,145,1.0,4.0,94,0.00,BKN,,0.00,70.0,WeatherDisplay:10.37,2013-05-07 07:31:00,
2013-05-07 08:41:00,51.2,49.6,29.93,SE,145,0.0,0.0,94,0.00,BKN,,0.00,116.0,WeatherDisplay:10.37,2013-05-07 07:41:00,
2013-05-07 08:46:00,51.4,49.7,29.93,SE,145,0.0,0.0,94,0.00,BKN,,0.00,114.0,WeatherDisplay:10.37,2013-05-07 07:46:00,
2013-05-07 08:51:00,51.6,49.9,29.93,SE,145,0.0,0.0,94,0.00,BKN,,0.00,100.0,WeatherDisplay:10.37,2013-05-07 07:51:00,
2013-05-07 09:01:00,52.0,50.0,29.93,SE,145,0.0,2.0,93,0.00,BKN,,0.00,102.0,WeatherDisplay:10.37,2013-05-07 08:01:00,
2013-05-07 09:11:00,52.2,50.3,29.92,SE,145,1.0,4.0,93,0.00,BKN,,0.00,83.0,WeatherDisplay:10.37,2013-05-07 08:11:00,
2013-05-07 09:21:00,52.5,50.2,29.92,SE,145,1.0,4.0,92,0.00,BKN,,0.00,56.0,WeatherDisplay:10.37,2013-05-07 08:21:00,
2013-05-07 09:31:00,52.6,50.3,29.92,SE,145,1.0,5.0,92,0.00,BKN,,0.00,77.0,WeatherDisplay:10.37,2013-05-07 08:31:00,
2013-05-07 09:41:00,52.7,50.2,29.92,SE,145,1.0,2.0,91,0.00,BKN,,0.00,58.0,WeatherDisplay:10.37,2013-05-07 08:41:00,
2013-05-07 09:46:00,52.8,50.3,29.92,SE,145,0.0,1.0,91,0.00,BKN,,0.00,58.0,WeatherDisplay:10.37,2013-05-07 08:46:00,
2013-05-07 09:51:00,52.9,50.3,29.92,SE,145,0.0,4.0,91,0.00,BKN,,0.00,83.0,WeatherDisplay:10.37,2013-05-07 08:51:00,
2013-05-07 10:01:00,53.1,50.2,29.92,SE,145,0.0,1.0,90,0.00,BKN,,0.00,47.0,WeatherDisplay:10.37,2013-05-07 09:01:00,
2013-05-07 10:11:00,53.2,50.3,29.92,SE,145,0.0,2.0,90,0.00,BKN,,0.00,37.0,WeatherDisplay:10.37,2013-05-07 09:11:00,
2013-05-07 10:16:00,53.3,50.4,29.92,SE,145,0.0,1.0,90,0.00,BKN,,0.00,42.0,WeatherDisplay:10.37,2013-05-07 09:16:00,
2013-05-07 10:21:00,53.3,50.4,29.92,SE,145,0.0,0.0,90,0.00,BKN,,0.00,58.0,WeatherDisplay:10.37,2013-05-07 09:21:00,
2013-05-07 10:31:00,53.5,50.6,29.92,SE,145,0.0,2.0,90,0.00,BKN,,0.00,91.0,WeatherDisplay:10.37,2013-05-07 09:31:00,
2013-05-07 10:41:00,53.8,50.9,29.92,SE,145,0.0,1.0,90,0.00,BKN,,0.00,125.0,WeatherDisplay:10.37,2013-05-07 09:41:00,
2013-05-07 10:46:00,54.0,51.1,29.91,SE,145,2.0,4.0,90,0.00,BKN,,0.00,169.0,WeatherDisplay:10.37,2013-05-07 09:46:00,
2013-05-07 10:51:00,54.3,51.4,29.91,SE,145,1.0,6.0,90,0.00,BKN,,0.00,216.0,WeatherDisplay:10.37,2013-05-07 09:51:00,
2013-05-07 11:01:00,55.0,51.8,29.90,SE,145,2.0,7.0,89,0.00,BKN,,0.00,243.0,WeatherDisplay:10.37,2013-05-07 10:01:00,
2013-05-07 11:11:00,55.8,52.3,29.90,SE,144,2.0,5.0,88,0.00,BKN,,0.00,204.0,WeatherDisplay:10.37,2013-05-07 10:11:00,
2013-05-07 11:16:00,56.0,51.9,29.90,SE,143,1.0,7.0,86,0.00,BKN,,0.00,295.0,WeatherDisplay:10.37,2013-05-07 10:16:00,
2013-05-07 11:21:00,56.3,51.8,29.90,SE,142,3.0,6.0,85,0.00,BKN,,0.00,214.0,WeatherDisplay:10.37,2013-05-07 10:21:00,
2013-05-07 11:31:00,56.6,51.8,29.90,SE,140,0.0,6.0,84,0.00,BKN,,0.00,163.0,WeatherDisplay:10.37,2013-05-07 10:31:00,
2013-05-07 11:40:00,56.9,52.1,29.89,SE,139,2.0,5.0,84,0.00,BKN,,0.00,179.0,WeatherDisplay:10.37,2013-05-07 10:40:00,
2013-05-07 11:50:00,57.1,52.0,29.89,SE,139,0.0,4.0,83,0.00,BKN,,0.00,118.0,WeatherDisplay:10.37,2013-05-07 10:50:00,
2013-05-07 12:00:00,57.4,51.6,29.88,ESE,106,5.0,8.0,81,0.00,BKN,,0.00,232.0,WeatherDisplay:10.37,2013-05-07 11:00:00,
2013-05-07 12:10:00,58.1,50.9,29.88,East,101,3.0,13.0,77,0.00,BKN,,0.00,278.0,WeatherDisplay:10.37,2013-05-07 11:10:00,
2013-05-07 12:15:00,58.5,50.9,29.88,ESE,102,5.0,12.0,76,0.00,BKN,,0.00,186.0,WeatherDisplay:10.37,2013-05-07 11:15:00,
2013-05-07 12:20:00,58.7,51.2,29.88,East,100,7.0,12.0,76,0.00,BKN,,0.00,211.0,WeatherDisplay:10.37,2013-05-07 11:20:00,
2013-05-07 12:30:00,59.0,50.4,29.88,ESE,110,9.0,14.0,73,0.00,BKN,,0.00,236.0,WeatherDisplay:10.37,2013-05-07 11:30:00,
2013-05-07 12:40:00,59.0,50.0,29.88,ESE,109,10.0,15.0,72,0.00,BKN,,0.00,120.0,WeatherDisplay:10.37,2013-05-07 11:40:00,
2013-05-07 12:50:00,58.7,50.1,29.87,ESE,110,7.0,14.0,73,0.00,BKN,,0.00,165.0,WeatherDisplay:10.37,2013-05-07 11:50:00,
2013-05-07 13:00:00,58.7,50.1,29.87,ESE,112,7.0,16.0,73,0.00,BKN,,0.00,167.0,WeatherDisplay:10.37,2013-05-07 12:00:00,
2013-05-07 13:10:00,58.6,50.4,29.86,ESE,105,8.0,13.0,74,0.00,BKN,,0.00,128.0,WeatherDisplay:10.37,2013-05-07 12:10:00,
2013-05-07 13:20:00,58.2,51.0,29.85,ESE,108,6.0,9.0,77,0.00,BKN,,0.00,236.0,WeatherDisplay:10.37,2013-05-07 12:20:00,
2013-05-07 13:30:00,58.5,51.0,29.85,ESE,120,12.0,18.0,76,0.00,BKN,,0.00,306.0,WeatherDisplay:10.37,2013-05-07 12:30:00,
2013-05-07 13:40:00,59.4,51.5,29.85,ESE,112,7.0,14.0,75,0.00,BKN,,0.00,341.0,WeatherDisplay:10.37,2013-05-07 12:40:00,
2013-05-07 13:45:00,59.6,51.3,29.84,ESE,111,9.0,16.0,74,0.00,BKN,,0.00,313.0,WeatherDisplay:10.37,2013-05-07 12:45:00,
2013-05-07 13:50:00,59.7,51.0,29.84,ESE,104,6.0,16.0,73,0.00,BKN,,0.00,213.0,WeatherDisplay:10.37,2013-05-07 12:50:00,
2013-05-07 14:00:00,59.4,50.4,29.84,ESE,108,8.0,16.0,72,0.00,BKN,,0.00,186.0,WeatherDisplay:10.37,2013-05-07 13:00:00,
2013-05-07 14:10:00,59.1,50.1,29.83,ESE,112,7.0,14.0,72,0.00,BKN,,0.00,176.0,WeatherDisplay:10.37,2013-05-07 13:10:00,
2013-05-07 14:15:00,59.2,50.9,29.83,ESE,106,6.0,13.0,74,0.00,BKN,,0.00,234.0,WeatherDisplay:10.37,2013-05-07 13:15:00,
2013-05-07 14:20:00,59.3,50.6,29.83,ESE,108,9.0,13.0,73,0.00,BKN,,0.00,218.0,WeatherDisplay:10.37,2013-05-07 13:20:00,
2013-05-07 14:30:00,59.6,50.9,29.82,ESE,105,7.0,12.0,73,0.00,BKN,,0.00,197.0,WeatherDisplay:10.37,2013-05-07 13:30:00,
2013-05-07 14:40:00,59.6,50.2,29.81,ESE,105,8.0,16.0,71,0.00,BKN,,0.00,271.0,WeatherDisplay:10.37,2013-05-07 13:40:00,
2013-05-07 14:50:00,60.2,50.4,29.81,ESE,115,6.0,16.0,70,0.00,BKN,,0.00,301.0,WeatherDisplay:10.37,2013-05-07 13:50:00,
2013-05-07 15:00:00,60.8,51.0,29.80,ESE,103,7.0,14.0,70,0.00,BKN,,0.00,244.0,WeatherDisplay:10.37,2013-05-07 14:00:00,
2013-05-07 15:10:00,60.6,49.9,29.80,ESE,103,8.0,16.0,68,0.00,BKN,,0.00,123.0,WeatherDisplay:10.37,2013-05-07 14:10:00,
2013-05-07 15:15:00,60.2,49.2,29.79,ESE,111,10.0,15.0,67,0.00,BKN,,0.00,132.0,WeatherDisplay:10.37,2013-05-07 14:15:00,
2013-05-07 15:20:00,60.0,49.8,29.79,ESE,109,8.0,15.0,69,0.00,BKN,,0.00,109.0,WeatherDisplay:10.37,2013-05-07 14:20:00,
2013-05-07 15:30:00,59.7,49.9,29.79,ESE,109,7.0,17.0,70,0.00,BKN,,0.00,137.0,WeatherDisplay:10.37,2013-05-07 14:30:00,
2013-05-07 15:40:00,59.7,49.5,29.78,ESE,112,8.0,17.0,69,0.00,BKN,,0.00,130.0,WeatherDisplay:10.37,2013-05-07 14:40:00,
2013-05-07 15:45:00,59.7,49.9,29.78,ESE,108,8.0,14.0,70,0.00,BKN,,0.00,93.0,WeatherDisplay:10.37,2013-05-07 14:45:00,
2013-05-07 15:50:00,59.7,50.3,29.78,ESE,115,7.0,13.0,71,0.00,BKN,,0.00,76.0,WeatherDisplay:10.37,2013-05-07 14:50:00,
2013-05-07 16:00:00,59.5,50.1,29.78,ESE,118,7.0,20.0,71,0.00,BKN,,0.00,72.0,WeatherDisplay:10.37,2013-05-07 15:00:00,
2013-05-07 16:10:00,59.2,50.2,29.77,SE,126,16.0,22.0,72,0.00,BKN,,0.00,72.0,WeatherDisplay:10.37,2013-05-07 15:10:00,
2013-05-07 16:15:00,58.9,50.3,29.77,SE,126,12.0,20.0,73,0.00,BKN,,0.00,72.0,WeatherDisplay:10.37,2013-05-07 15:15:00,
2013-05-07 16:20:00,58.6,50.3,29.77,SE,132,14.0,22.0,74,0.00,BKN,,0.00,77.0,WeatherDisplay:10.37,2013-05-07 15:20:00,
2013-05-07 16:30:00,58.2,50.3,29.77,SE,132,8.0,20.0,75,0.00,BKN,,0.00,181.0,WeatherDisplay:10.37,2013-05-07 15:30:00,
2013-05-07 16:40:00,58.5,51.0,29.76,SE,129,12.0,15.0,76,0.00,BKN,,0.00,183.0,WeatherDisplay:10.37,2013-05-07 15:40:00,
2013-05-07 16:50:00,58.6,50.7,29.76,ESE,117,10.0,18.0,75,0.00,BKN,,0.00,125.0,WeatherDisplay:10.37,2013-05-07 15:50:00,
2013-05-07 17:00:00,58.4,50.8,29.76,SE,129,9.0,21.0,76,0.00,BKN,,0.00,113.0,WeatherDisplay:10.37,2013-05-07 16:00:00,
2013-05-07 17:10:00,58.1,50.6,29.75,SE,131,9.0,16.0,76,0.00,BKN,,0.00,130.0,WeatherDisplay:10.37,2013-05-07 16:10:00,
2013-05-07 17:15:00,58.0,50.5,29.75,SE,129,13.0,17.0,76,0.00,BKN,,0.00,146.0,WeatherDisplay:10.37,2013-05-07 16:15:00,
2013-05-07 17:20:00,58.0,50.8,29.74,ESE,120,8.0,22.0,77,0.00,BKN,,0.00,165.0,WeatherDisplay:10.37,2013-05-07 16:20:00,
2013-05-07 17:30:00,58.1,51.3,29.74,SE,126,8.0,13.0,78,0.00,BKN,,0.00,156.0,WeatherDisplay:10.37,2013-05-07 16:30:00,
2013-05-07 17:40:00,58.1,50.9,29.74,SE,128,8.0,18.0,77,0.00,BKN,,0.00,107.0,WeatherDisplay:10.37,2013-05-07 16:40:00,
2013-05-07 20:00:00,54.8,51.0,29.70,SE,125,9.0,13.0,87,0.00,CLR,,0.00,33.0,WeatherDisplay:10.37,2013-05-07 19:00:00,
2013-05-07 20:17:00,54.8,51.3,29.69,ESE,120,7.0,13.0,88,0.00,BKN,,0.00,33.0,WeatherDisplay:10.37,2013-05-07 19:17:00,
2013-05-07 20:26:00,54.8,51.0,29.69,SE,127,8.0,17.0,87,0.00,BKN,,0.00,18.0,WeatherDisplay:10.37,2013-05-07 19:26:00,
2013-05-07 20:35:00,54.9,51.1,29.69,SE,127,7.0,12.0,87,0.00,BKN,,0.00,11.0,WeatherDisplay:10.37,2013-05-07 19:35:00,
2013-05-07 20:40:00,54.9,50.8,29.69,SE,128,7.0,12.0,86,0.00,BKN,,0.00,5.0,WeatherDisplay:10.37,2013-05-07 19:40:00,
2013-05-07 20:50:00,54.8,51.0,29.68,SE,136,8.0,14.0,87,0.00,OVC,,0.00,0.0,WeatherDisplay:10.37,2013-05-07 19:50:00,
2013-05-07 21:00:00,54.8,51.0,29.68,SE,132,6.0,13.0,87,0.00,OVC,,0.00,0.0,WeatherDisplay:10.37,2013-05-07 20:00:00,
2013-05-07 21:10:00,54.8,50.7,29.68,SE,127,8.0,12.0,86,0.00,OVC,,0.00,0.0,WeatherDisplay:10.37,2013-05-07 20:10:00,
2013-05-07 21:15:00,54.8,50.7,29.68,SE,130,7.0,13.0,86,0.00,OVC,,0.00,0.0,WeatherDisplay:10.37,2013-05-07 20:15:00,
2013-05-07 21:20:00,54.9,50.7,29.68,SE,130,7.0,12.0,86,0.00,OVC,,0.00,0.0,WeatherDisplay:10.37,2013-05-07 20:20:00,
2013-05-07 21:30:00,54.8,50.7,29.68,SE,125,6.0,10.0,86,0.00,OVC,,0.00,0.0,WeatherDisplay:10.37,2013-05-07 20:30:00,
2013-05-07 21:40:00,54.8,50.7,29.67,SE,127,6.0,9.0,86,0.00,OVC,,0.00,0.0,WeatherDisplay:10.37,2013-05-07 20:40:00,
2013-05-07 21:45:00,54.8,50.7,29.67,SE,134,6.0,9.0,86,0.00,OVC,,0.00,0.0,WeatherDisplay:10.37,2013-05-07 20:45:00,
2013-05-07 22:00:00,54.8,50.7,29.67,ESE,112,6.0,16.0,86,0.00,CLR,,0.00,0.0,WeatherDisplay:10.37,2013-05-07 21:00:00,
2013-05-07 22:10:00,54.7,50.6,29.67,ESE,109,9.0,13.0,86,0.00,CLR,,0.00,0.0,WeatherDisplay:10.37,2013-05-07 21:10:00,
2013-05-07 22:15:00,54.7,50.9,29.66,ESE,111,6.0,13.0,87,0.01,RA,,0.01,0.0,WeatherDisplay:10.37,2013-05-07 21:15:00,
2013-05-07 22:25:00,54.3,50.8,29.66,ESE,118,6.0,12.0,88,0.00,RA,,0.01,0.0,WeatherDisplay:10.37,2013-05-07 21:25:00,
2013-05-07 22:30:00,54.0,50.8,29.66,ESE,121,5.0,12.0,89,0.00,CLR,,0.01,0.0,WeatherDisplay:10.37,2013-05-07 21:30:00,
2013-05-07 22:35:00,53.9,50.7,29.66,SE,124,3.0,7.0,89,0.00,CLR,,0.01,0.0,WeatherDisplay:10.37,2013-05-07 21:35:00,
2013-05-07 22:45:00,53.5,50.7,29.65,ESE,117,5.0,9.0,90,0.00,RA,,0.02,0.0,WeatherDisplay:10.37,2013-05-07 21:45:00,
2013-05-07 22:50:00,53.4,50.8,29.65,ESE,121,5.0,12.0,91,0.00,,,0.02,0.0,WeatherDisplay:10.37,2013-05-07 21:50:00,
2013-05-07 22:55:00,53.3,50.7,29.64,SE,126,2.0,7.0,91,0.00,CLR,,0.02,0.0,WeatherDisplay:10.37,2013-05-07 21:55:00,
2013-05-07 23:00:00,53.2,50.6,29.64,ESE,122,5.0,9.0,91,0.00,CLR,,0.02,0.0,WeatherDisplay:10.37,2013-05-07 22:00:00,
2013-05-07 23:10:00,53.0,50.7,29.63,ESE,121,2.0,6.0,92,0.01,RA,,0.02,0.0,WeatherDisplay:10.37,2013-05-07 22:10:00,
2013-05-07 23:15:00,53.0,50.7,29.63,ESE,121,0.0,5.0,92,0.00,RA,,0.02,0.0,WeatherDisplay:10.37,2013-05-07 22:15:00,
2013-05-07 23:25:00,52.8,50.5,29.62,ESE,121,0.0,4.0,92,0.00,CLR,,0.02,0.0,WeatherDisplay:10.37,2013-05-07 22:25:00,
2013-05-07 23:30:00,52.8,50.5,29.62,ESE,121,1.0,4.0,92,0.01,RA,,0.03,0.0,WeatherDisplay:10.37,2013-05-07 22:30:00,
2013-05-07 23:40:00,52.7,50.8,29.62,ESE,121,1.0,5.0,93,0.01,RA,,0.04,0.0,WeatherDisplay:10.37,2013-05-07 22:40:00,
2013-05-07 23:45:00,52.7,50.7,29.61,ESE,121,2.0,6.0,93,0.00,RA,,0.04,0.0,WeatherDisplay:10.37,2013-05-07 22:45:00,
2013-05-07 23:50:00,52.7,50.7,29.61,ESE,121,2.0,5.0,93,0.01,RA,,0.05,0.0,WeatherDisplay:10.37,2013-05-07 22:50:00,